Flag for Austria Weather past 2 weeks in Krems, Lower Austria, Austria

Now
61 °F

Partly sunny.


Feels Like: 61 °F
Forecast: 42 / 69 °F
Wind: 7 mph from East

Location: Tulln Airport


UV Index: 3 (Moderate)

Visibility: 19 mi


Pressure: 29.77 "Hg

Humidity: 59%

Dew point: 46 °F

Location of KremsLocation

Historic Weather in Krems

°F

Krems temperature yesterday

Maximum temperature yesterday: 66 °F (at 2:50 PM)
Minimum temperature yesterday: 39 °F (at 5:50 AM)
Average temperature yesterday: 55 °F

Past Weeks' High & Low Weather Summary

 TemperatureHumidityPressure
High75 °F (Apr 8, 1:50 PM)100% (Apr 7, 5:50 AM)30.33 "Hg (Apr 7, 5:50 AM)
Low32 °F (Apr 18, 4:50 AM)28% (Apr 18, 2:50 PM)29.74 "Hg (Apr 18, 3:50 PM)
Average52 °F66%30.02 "Hg
* Reported Apr 5 3:50 PM — Apr 20 3:50 PM, Krems, Weather by CustomWeather, © 2014

Note: Actual official high and low records may vary slightly from our data, if they occured in-between our weather recording intervals... More about our weather records

Advertising

Historic Weather Conditions — Data for Previous 24 hours

 ConditionsComfort  
Time TempWeatherWind HumidityBarometerVisibility
3:50 PM
Apr 20
61 °FPartly sunny.6 mph55%29.80 "Hg19 mi
2:50 PM59 °FPartly sunny.10 mph59%29.80 "Hg19 mi
1:50 PM61 °FBroken clouds.9 mph59%29.83 "Hg19 mi
12:50 PM59 °FPartly sunny.10 mph63%29.83 "Hg19 mi
11:50 AM59 °FPartly sunny.10 mph63%29.83 "Hg19 mi
10:50 AM57 °FBroken clouds.13 mph63%29.83 "Hg19 mi
9:50 AM55 °FBroken clouds.7 mph72%29.83 "Hg19 mi
8:50 AM50 °FPartly sunny.7 mph88%29.83 "Hg6 mi
7:50 AM48 °FFog.3 mph94%29.83 "Hg2 mi
6:50 AM43 °FFog.2 mph100%29.80 "Hg0 mi
5:50 AM43 °FFog.No wind100%29.80 "Hg1 mi
10:50 PM
Apr 19
52 °FPartly cloudy.12 mph82%29.77 "Hg9 mi
9:50 PM54 °FSprinkles. Partly cloudy.2 mph94%29.77 "Hg6 mi
8:50 PM54 °FRain showers. Broken clouds.7 mph94%29.77 "Hg5 mi
7:50 PM57 °FBroken clouds.3 mph77%29.74 "Hg11 mi
6:50 PM59 °FBroken clouds.7 mph68%29.74 "Hg12 mi
5:50 PM61 °FBroken clouds.15 mph63%29.74 "Hg12 mi
Weather by CustomWeather, © 2014

See weather overview